Phnom Penh, Cambodia

4:38 PM +07 on February 21, 2018 (GMT +0700)
Pochentong International

Weather History for VDPP - January, 2013

Change the Weather History Date:

Tuesday, January 1, 2013

  Actual Average Record
Temperature  
Mean Temperature 80 °F -  
Max Temperature 87 °F 86 °F 91 °F (2004)
Min Temperature 72 °F 72 °F 66 °F (2002)
Cooling Degree Days 14    
Growing Degree Days 30 (Base 50)    
Moisture  
Dew Point 65 °F    
Average Humidity 60    
Maximum Humidity 73    
Minimum Humidity 45    
Precipitation  
Precipitation 0.00 in - - ()
Sea Level Pressure  
Sea Level Pressure 29.86 in    
Wind  
Wind Speed 6 mph ()    
Max Wind Speed 12 mph    
Max Gust Speed -    
Visibility 5.6 miles    
Events      
Averages and records for this station are not official NWS values.
T = Trace of Precipitation, MM = Missing Value Source: Averaged Metar Reports

Daily Weather History Graph

Daily Weather History Graph

Search for Another Location

Airport or City:

Trip Planner

Search our weather history database for the weather conditions in past years. The results will help you decide how hot, cold, wet, or windy it might be!

Date:

Astronomy

Jan. 01, 2013 Rise Set
Actual Time 6:20 AM +07 5:48 PM +07
Civil Twilight 5:57 AM +07 6:10 PM +07
Nautical Twilight 5:30 AM +07 6:37 PM +07
Astronomical Twilight 5:04 AM +07 7:03 PM +07
Moon 9:03 PM +07 (1/1) 8:53 AM +07 (1/1)
Length of Visible Light 12h 13m
Length of Day
11h 27m
Waning Gibbous, 87% of the Moon is Illuminated
Jan 1
Waning Gibbous
Jan 5
Last Quarter
Jan 12
New
Jan 19
First Quarter
Jan 27
Full

Hourly Weather History & Observations

Time (+07) Temp. Heat Index Dew Point Humidity Pressure Visibility Wind Dir Wind Speed Gust Speed Precip Events Conditions
12:00 AM 77.0 °F - 64.4 °F 65% 29.86 in 5.6 mi ENE 4.6 mph - N/A   Unknown
12:30 AM 77.0 °F - 64.4 °F 65% 29.86 in 5.6 mi ENE 4.6 mph - N/A   Unknown
1:00 AM 77.0 °F - 64.4 °F 65% 29.86 in 5.6 mi North 6.9 mph - N/A   Unknown
6:00 AM 73.4 °F - 64.4 °F 73% 29.86 in 5.6 mi NNE 6.9 mph - N/A   Scattered Clouds
6:30 AM 73.4 °F - 64.4 °F 73% 29.86 in 5.6 mi North 6.9 mph - N/A   Scattered Clouds
7:00 AM 72 °F - 65 °F 72% 29.92 in 6 mi North 8.9 mph - -   Scattered Clouds
7:00 AM 73.4 °F - 64.4 °F 73% 29.89 in 5.6 mi North 6.9 mph - N/A   Unknown
7:30 AM 73.4 °F - 62.6 °F 69% 29.89 in 5.6 mi NNE 8.1 mph - N/A   Unknown
8:00 AM 75.2 °F - 62.6 °F 65% 29.92 in 5.6 mi North 9.2 mph - N/A   Unknown
8:30 AM 77.0 °F - 62.6 °F 61% 29.92 in - North 10.4 mph - N/A   Clear
9:00 AM 78.8 °F - 62.6 °F 57% 29.92 in - North 9.2 mph - N/A   Clear
9:30 AM 78.8 °F - 62.6 °F 57% 29.92 in - NNE 9.2 mph - N/A   Clear
10:00 AM 78.8 °F - 64.4 °F 61% 29.92 in - North 10.4 mph - N/A   Clear
10:30 AM 78.8 °F - 64.4 °F 61% 29.92 in - NNE 10.4 mph - N/A   Clear
11:00 AM 80.6 °F 82.3 °F 64.4 °F 58% 29.89 in - NNW 10.4 mph - N/A   Clear
11:30 AM 82.4 °F 83.9 °F 64.4 °F 54% 29.89 in - NNW 11.5 mph - N/A   Clear
12:00 PM 82.4 °F 83.9 °F 64.4 °F 54% 29.86 in 5.6 mi North 8.1 mph - N/A   Unknown
12:30 PM 82.4 °F 83.9 °F 64.4 °F 54% 29.86 in 5.6 mi NNW 5.8 mph - N/A   Unknown
1:30 PM 84.2 °F 85.6 °F 64.4 °F 51% 29.83 in 5.6 mi NW 6.9 mph - N/A   Unknown
2:00 PM 86.0 °F 86.6 °F 62.6 °F 45% 29.83 in - NNE 10.4 mph - N/A   Clear
2:30 PM 87.8 °F 89.4 °F 64.4 °F 46% 29.80 in - NE 11.5 mph - N/A   Clear
3:00 PM 86.0 °F 87.3 °F 64.4 °F 48% 29.80 in - NNE 8.1 mph - N/A   Clear
3:30 PM 86.0 °F 87.3 °F 64.4 °F 48% 29.80 in - North 4.6 mph - N/A   Clear
4:00 PM 84.2 °F 86.6 °F 66.2 °F 55% 29.80 in - NNW 9.2 mph - N/A   Clear
4:30 PM 84.2 °F 86.6 °F 66.2 °F 55% 29.80 in - NW 4.6 mph - N/A   Clear
5:00 PM 84.2 °F 86.6 °F 66.2 °F 55% 29.80 in - NW 4.6 mph - N/A   Clear
5:30 PM 84.2 °F 86.6 °F 66.2 °F 55% 29.83 in 5.6 mi NW 4.6 mph - N/A   Unknown
6:00 PM 84.2 °F 87.3 °F 68.0 °F 58% 29.83 in 5.6 mi NNW 4.6 mph - N/A   Unknown
6:30 PM 82.4 °F 84.6 °F 66.2 °F 58% 29.83 in 5.6 mi NNW 4.6 mph - N/A   Unknown
9:00 PM 80.6 °F 83.2 °F 68.0 °F 65% 29.86 in 5.6 mi NNW 5.8 mph - N/A   Unknown
9:30 PM 80.6 °F 83.2 °F 68.0 °F 65% 29.86 in 5.6 mi North 5.8 mph - N/A   Unknown
10:00 PM 80.6 °F 83.2 °F 68.0 °F 65% 29.86 in 5.6 mi North 5.8 mph - N/A   Unknown
10:30 PM 78.8 °F - 68.0 °F 69% 29.86 in 5.6 mi North 5.8 mph - N/A   Unknown
11:00 PM 78.8 °F - 68.0 °F 69% 29.86 in 5.6 mi North 5.8 mph - N/A   Unknown
11:30 PM 78.8 °F - 68.0 °F 69% 29.86 in 5.6 mi North 4.6 mph - N/A   Unknown